Stations météo

Publicité
Cannes, France (7684): Température de l'air & dewpoint: 12.01.2018 14:00:00 - 18.01.2018 14:00:00 (CET)Cannes, France (7684): Température de l'air 5cm: 12.01.2018 14:00:00 - 18.01.2018 14:00:00 (CET)Cannes, France (7684): Vitesse du vent & gusts: 12.01.2018 14:00:00 - 18.01.2018 14:00:00 (CET)Cannes, France (7684): Direction du vent: 12.01.2018 14:00:00 - 18.01.2018 14:00:00 (CET)Cannes, France (7684): reduced air pressure: 12.01.2018 14:00:00 - 18.01.2018 14:00:00 (CET)Cannes, France (7684): visibility: 12.01.2018 14:00:00 - 18.01.2018 14:00:00 (CET)Cannes, France (7684): Quantités de précipitations: 12.01.2018 14:00:00 - 18.01.2018 14:00:00 (CET)
Date & Time tt [°C] td [°C] tt 5cm [°C] ff [km/h] ff [knt] fx [km/h] fx [knt] dd ppp [hPa] vv [km] rr [mm]
18.01.2018 14:00:00 15,3 1,0 15,0 40 22 73 40 W 1012,6 33 0,0
18.01.2018 13:00:00 14,8 0,2 12,6 22 12 58 31 WNW 1013,9 39 0,0
18.01.2018 12:00:00 13,0 -0,7 12,2 25 14 59 32 W 1015,1 20 0,0
18.01.2018 11:00:00 11,6 -1,6 10,4 37 20 63 34 W 1015,7 10 0,0
18.01.2018 10:00:00 10,3 -2,1 6,8 9 5 25 13 WSW 1016,3 60 0,0
18.01.2018 09:00:00 7,1 -3,5 1,2 5 3 13 7 ENE 1016,7 10 0,0
18.01.2018 08:00:00 5,1 -4,5 0,8 2 1 13 7 - 1016,6 10 0,0
18.01.2018 07:00:00 4,1 -5,1 -1,6 4 2 12 7 - 1016,4 10 0,0
18.01.2018 06:00:00 2,6 -5,1 -1,9 0 0 10 6 N 1016,8 10 0,0
18.01.2018 05:00:00 2,7 -5,0 -2,1 0 0 5 3 N 1017,6 59 0,0
18.01.2018 04:00:00 2,9 -5,8 -1,5 0 0 8 4 N 1017,9 10 0,0
18.01.2018 03:00:00 4,1 -6,2 -0,8 3 1 6 3 SSW 1018,2 60 0,0
18.01.2018 02:00:00 6,6 -7,4 1,2 2 1 10 5 - 1018,0 10 0,0
18.01.2018 01:00:00 8,5 -9,9 1,2 4 2 28 15 - 1017,6 10 0,0
18.01.2018 00:00:00 6,7 -9,7 -0,3 4 2 9 5 - 1017,4 10 0,0
17.01.2018 23:00:00 7,6 -10,2 1,2 5 3 13 7 SE 1016,9 60 0,0
17.01.2018 22:00:00 9,4 -10,7 6,0 13 7 41 22 WSW 1016,5 10 0,0
17.01.2018 21:00:00 10,7 -12,0 9,0 23 12 46 25 W 1015,4 60 0,0
17.01.2018 20:00:00 11,9 -14,8 9,8 26 14 50 27 WNW 1014,6 10 0,0
17.01.2018 19:00:00 11,8 -14,1 9,7 22 12 58 32 WNW 1014,2 10 0,0
17.01.2018 18:00:00 11,8 -11,8 10,1 31 17 56 31 WNW 1013,1 10 0,0
17.01.2018 17:00:00 11,7 -7,7 10,3 28 15 50 27 W 1012,0 10 0,0
17.01.2018 16:00:00 13,2 -10,0 14,1 28 15 69 37 WNW 1011,2 10 0,0
17.01.2018 15:00:00 13,8 -8,2 15,2 25 14 70 38 NW 1009,8 22 0,0
17.01.2018 14:00:00 13,9 -8,1 14,0 28 15 64 35 WNW 1009,6 10 0,0
17.01.2018 13:00:00 13,9 -9,4 15,3 37 20 81 44 WNW 1009,2 10 0,0
17.01.2018 12:00:00 14,2 -9,1 15,8 37 20 67 36 WNW 1008,5 23 0,0
17.01.2018 11:00:00 14,5 -8,2 15,5 35 19 74 40 WNW 1007,8 26 0,0
17.01.2018 10:00:00 14,5 -8,9 13,9 32 18 85 46 WNW 1006,9 30 0,0
17.01.2018 09:00:00 13,9 -6,9 10,4 29 16 73 39 NW 1006,1 38 0,0
17.01.2018 08:00:00 13,1 -2,0 11,3 24 13 82 44 WNW 1004,8 10 0,0
17.01.2018 07:00:00 13,2 1,5 12,1 34 18 80 43 W 1003,3 10 0,0
17.01.2018 06:00:00 13,7 2,6 11,9 24 13 63 34 W 1003,4 10 0,0
17.01.2018 05:00:00 13,8 3,5 12,0 34 18 66 36 W 1003,4 10 0,0
17.01.2018 04:00:00 13,5 6,8 10,5 31 17 65 35 W 1004,5 10 0,0
17.01.2018 03:00:00 14,5 6,8 13,1 29 16 65 35 W 1004,5 10 0,0
17.01.2018 02:00:00 14,7 6,8 13,4 31 17 76 41 W 1005,2 10 0,0
17.01.2018 01:00:00 14,5 7,1 13,2 35 19 83 45 W 1005,6 10 0,0
17.01.2018 00:00:00 15,0 6,5 13,9 34 18 69 37 W 1005,8 10 0,0
16.01.2018 23:00:00 15,2 6,5 14,0 35 19 82 44 W 1006,1 10 0,0
16.01.2018 22:00:00 15,4 5,9 13,7 29 16 74 40 W 1006,7 10 0,0
16.01.2018 21:00:00 15,2 5,7 13,7 26 14 56 30 W 1006,6 10 0,0
16.01.2018 20:00:00 15,3 4,6 13,6 29 16 64 34 W 1006,8 10 0,0
16.01.2018 19:00:00 15,0 5,2 13,6 34 18 63 34 W 1006,9 10 0,0
16.01.2018 18:00:00 15,1 5,3 13,9 31 17 59 32 W 1006,8 60 0,0
16.01.2018 17:00:00 16,2 3,9 14,8 26 14 52 28 W 1007,0 60 0,0
16.01.2018 16:00:00 17,1 4,7 18,0 26 14 64 34 W 1007,7 26 0,0
16.01.2018 15:00:00 17,3 5,6 18,4 29 16 68 37 W 1007,8 10 0,0
16.01.2018 14:00:00 16,9 5,2 16,5 34 19 73 40 W 1008,3 17 0,0
16.01.2018 13:00:00 16,5 4,8 18,0 37 20 74 40 W 1008,7 10 0,0
16.01.2018 12:00:00 16,6 4,6 16,1 26 14 63 34 W 1010,0 10 0,0
16.01.2018 11:00:00 14,5 4,8 14,5 36 20 72 39 WSW 1011,5 25 0,0
16.01.2018 10:00:00 12,9 5,1 12,4 31 17 66 36 WSW 1011,7 10 0,0
16.01.2018 09:00:00 11,7 4,7 9,6 29 16 57 31 WSW 1012,1 22 0,0
16.01.2018 08:00:00 10,6 4,3 9,2 31 17 53 29 WSW 1012,4 60 0,0
16.01.2018 07:00:00 10,5 4,0 9,1 29 16 54 29 WSW 1012,5 60 0,0
16.01.2018 06:00:00 10,5 3,7 9,2 26 14 46 25 WSW 1013,2 10 0,0
16.01.2018 05:00:00 10,8 2,4 9,4 24 13 52 28 W 1014,4 60 0,0
16.01.2018 04:00:00 10,8 2,6 9,4 22 12 54 29 W 1015,2 60 0,0
16.01.2018 03:00:00 10,7 3,2 9,6 13 7 37 20 W 1016,6 60 0,0
16.01.2018 02:00:00 10,7 3,5 7,5 22 12 44 24 W 1017,5 60 0,0
16.01.2018 01:00:00 9,0 4,2 6,4 13 7 21 12 SSW 1017,7 10 0,0
16.01.2018 00:00:00 9,8 4,2 7,4 13 7 27 14 SW 1018,5 10 0,0
15.01.2018 23:00:00 9,7 4,3 8,2 11 6 24 13 SSW 1019,1 35 0,0
15.01.2018 22:00:00 10,1 4,0 8,6 14 8 29 16 WSW 1019,3 34 0,0
15.01.2018 21:00:00 10,6 4,5 8,7 16 9 33 18 WSW 1019,6 10 0,0
15.01.2018 20:00:00 9,9 5,9 5,0 13 7 21 11 WSW 1019,5 19 0,0
15.01.2018 19:00:00 7,7 5,3 3,6 6 3 13 7 NNE 1019,8 10 0,0
15.01.2018 18:00:00 9,4 5,2 5,5 2 1 13 7 - 1019,8 10 0,0
15.01.2018 17:00:00 10,1 5,5 9,2 8 4 13 7 S 1020,4 10 0,0
15.01.2018 16:00:00 11,8 5,6 12,3 9 5 17 9 S 1020,7 10 0,0
15.01.2018 15:00:00 12,2 5,4 13,4 11 6 18 10 S 1020,8 10 0,0
15.01.2018 14:00:00 12,6 4,5 13,9 9 5 17 9 S 1021,3 10 0,0
15.01.2018 13:00:00 12,8 5,0 16,6 6 4 15 8 SE 1022,3 51 0,0
15.01.2018 12:00:00 12,7 4,1 16,3 5 3 14 7 S 1023,3 10 0,0
15.01.2018 11:00:00 9,5 4,5 8,4 5 3 14 7 - 1023,7 10 0,0
15.01.2018 10:00:00 7,7 3,7 7,3 8 4 16 9 N 1023,6 43 0,0
15.01.2018 09:00:00 5,3 3,3 4,3 8 5 13 7 N 1023,1 24 0,0
15.01.2018 08:00:00 5,5 3,7 4,7 8 4 15 8 N 1022,8 10 0,0
15.01.2018 07:00:00 5,7 4,0 4,0 8 4 13 7 N 1022,2 25 0,0
15.01.2018 06:00:00 5,9 4,2 4,7 5 3 15 8 N 1021,9 24 0,0
15.01.2018 05:00:00 6,1 4,4 5,2 8 4 15 8 N 1021,9 10 0,0
15.01.2018 04:00:00 6,5 4,7 5,9 8 5 15 8 N 1022,0 25 0,0
15.01.2018 03:00:00 6,9 4,9 6,5 8 4 14 7 NNE 1022,2 10 0,0
15.01.2018 02:00:00 6,9 5,2 6,6 9 5 15 8 N 1022,2 10 0,0
15.01.2018 01:00:00 7,1 5,2 6,7 8 4 13 7 NNE 1022,4 10 0,0
15.01.2018 00:00:00 7,1 5,2 6,7 8 4 13 7 NNE 1022,6 14 0,0
14.01.2018 23:00:00 7,2 5,2 6,7 8 4 16 8 NNE 1022,2 10 0,0
14.01.2018 22:00:00 7,2 5,7 6,8 9 5 14 8 N 1021,9 10 0,0
14.01.2018 21:00:00 7,3 5,6 6,9 8 4 14 8 N 1021,7 8 0,0
14.01.2018 20:00:00 7,5 5,5 6,9 7 4 11 6 N 1021,1 11 0,0
14.01.2018 19:00:00 7,9 4,8 7,0 5 3 11 6 N 1020,7 21 0,0
14.01.2018 18:00:00 8,1 4,9 7,1 9 5 16 8 N 1020,3 29 0,0
14.01.2018 17:00:00 8,1 5,2 7,1 8 4 13 7 N 1020,2 10 0,0
14.01.2018 16:00:00 8,0 5,3 7,3 10 5 21 11 NNW 1020,1 30 0,2
14.01.2018 15:00:00 8,0 6,0 7,6 11 6 19 11 N 1019,9 13 0,2
14.01.2018 14:00:00 8,1 6,6 7,7 11 6 22 12 N 1019,8 4,9 0,8
14.01.2018 13:00:00 8,0 6,6 7,5 8 4 23 12 N 1020,0 6 1,4
14.01.2018 12:00:00 9,0 4,6 7,6 9 5 19 11 NNE 1020,3 10 0,4
14.01.2018 11:00:00 9,1 4,3 7,3 8 4 16 9 NNE 1020,3 25 0,4
14.01.2018 10:00:00 7,6 3,8 6,3 8 4 13 7 N 1019,8 10 0,0
14.01.2018 09:00:00 6,4 3,0 5,5 8 5 15 8 NNE 1019,6 31 0,0
14.01.2018 08:00:00 6,0 2,8 5,2 10 5 14 8 NNE 1019,2 30 0,0
14.01.2018 07:00:00 5,7 2,7 5,0 9 5 15 8 NNE 1018,9 27 0,0
14.01.2018 06:00:00 5,4 2,7 4,7 8 5 15 8 NNE 1018,9 24 0,0
14.01.2018 05:00:00 5,2 2,5 4,4 8 5 12 7 NNE 1019,0 23 0,0
14.01.2018 04:00:00 5,0 2,7 4,2 7 4 14 8 N 1019,2 18 0,0
14.01.2018 03:00:00 4,9 2,8 4,0 8 4 15 8 N 1019,7 16 0,0
14.01.2018 02:00:00 5,0 2,7 3,6 11 6 17 9 N 1019,7 10 0,0
14.01.2018 01:00:00 4,8 2,8 3,4 6 4 13 7 N 1020,4 12 0,0
14.01.2018 00:00:00 4,9 2,9 3,5 5 3 15 8 N 1020,8 11 0,0
13.01.2018 23:00:00 5,1 3,1 4,0 6 3 13 7 N 1020,8 12 0,0
13.01.2018 22:00:00 5,8 3,6 4,0 5 3 10 6 N 1020,9 11 0,0
13.01.2018 21:00:00 6,0 3,5 3,8 6 3 10 6 N 1020,8 13 0,0
13.01.2018 20:00:00 7,5 4,4 5,3 5 3 9 5 N 1020,8 10 0,0
13.01.2018 19:00:00 8,6 4,2 5,2 4 2 7 4 N 1020,9 14 0,0
13.01.2018 18:00:00 9,2 3,6 5,0 0 0 5 3 N 1020,7 23 0,0
13.01.2018 17:00:00 11,2 2,7 9,4 5 3 13 7 SSE 1020,7 51 0,0
13.01.2018 16:00:00 11,7 2,7 11,5 10 5 16 9 S 1020,8 55 0,0
13.01.2018 15:00:00 13,0 4,7 16,6 9 5 18 10 S 1020,7 20 0,0
13.01.2018 14:00:00 12,9 5,8 13,1 10 6 18 10 S 1021,1 47 0,0
13.01.2018 13:00:00 13,2 6,3 17,3 11 6 18 10 S 1021,6 19 0,0
13.01.2018 12:00:00 13,8 5,2 15,6 5 3 9 5 S 1022,2 10 0,0
13.01.2018 11:00:00 10,3 3,1 11,5 5 3 16 8 N 1022,4 10 0,0
13.01.2018 10:00:00 7,0 2,1 6,1 8 4 17 9 N 1022,2 17 0,0
13.01.2018 09:00:00 4,0 1,0 1,7 8 5 16 8 N 1021,9 19 0,0
13.01.2018 08:00:00 2,7 0,4 1,2 10 5 15 8 N 1021,6 30 0,0
13.01.2018 07:00:00 2,7 0,6 1,6 10 5 16 9 N 1021,2 30 0,0
13.01.2018 06:00:00 2,7 0,4 1,6 9 5 16 9 N 1021,5 10 0,0
13.01.2018 05:00:00 2,7 0,4 1,4 9 5 16 8 N 1021,6 10 0,0
13.01.2018 04:00:00 2,6 0,2 1,4 9 5 16 9 N 1021,6 29 0,0
13.01.2018 03:00:00 2,8 0,2 1,8 9 5 17 9 N 1021,7 10 0,0
13.01.2018 02:00:00 3,3 0,7 1,9 13 7 19 11 N 1021,6 22 0,0
13.01.2018 01:00:00 3,6 1,0 2,1 8 5 15 8 N 1021,8 20 0,0
13.01.2018 00:00:00 4,0 1,4 2,6 9 5 16 8 N 1021,7 19 0,0
12.01.2018 23:00:00 4,3 2,0 3,0 9 5 15 8 N 1021,4 15 0,0
12.01.2018 22:00:00 5,1 2,4 3,6 8 4 14 8 N 1020,9 10 0,0
12.01.2018 21:00:00 5,8 3,1 4,5 8 4 13 7 N 1020,3 10 0,0
12.01.2018 20:00:00 7,0 4,0 5,3 5 3 13 7 N 1019,9 16 0,0
12.01.2018 19:00:00 8,3 4,3 6,5 4 2 9 5 N 1019,4 20 0,0
12.01.2018 18:00:00 9,5 4,7 7,9 5 3 8 4 N 1018,8 15 0,0
12.01.2018 17:00:00 11,4 4,4 10,2 4 2 8 4 - 1018,4 10 0,0
12.01.2018 16:00:00 15,1 3,9 16,4 3 1 13 7 WNW 1017,9 14 0,0
12.01.2018 15:00:00 15,0 3,8 18,1 7 4 11 6 N 1017,4 20 0,0
12.01.2018 14:00:00 14,2 2,7 14,7 4 2 10 5 NNW 1017,2 42 0,0

tt = Température de l'air
td = dewpoint
tt 5cm = Température de l'air 5cm
ff = Vitesse du vent
fx = gusts
dd = Direction du vent
ppp = reduced air pressure
vv = visibility
rr = Quantités de précipitations

stations d'obs. à proximité